Track WORLDVIEW 2 now! 10-day predictions WORLDVIEW 2 is classified as:
1 35946U 09055A 25191.16567928 .00000072 00000-0 38910-4 0 9992 2 35946 98.4810 264.4345 0004885 149.8944 210.2524 14.37279000826602